Time,TemperatureF,DewpointF,PressureIn,WindDirection,WindDirectionDegrees,WindSpeedMPH,WindSpeedGustMPH,Humidity,HourlyPrecipIn,Conditions,Clouds,dailyrainin,SoftwareType,DateUTC
2013-10-30 00:00:00,60.2,56.3,30.23,NE,55,0.0,0.0,87,0.00,,,0.00,Wunderground v.1.15,2013-10-30 04:00:00,
2013-10-30 00:01:00,60.2,56.3,30.23,NE,55,0.0,0.0,87,0.00,,,0.00,Wunderground v.1.15,2013-10-30 04:01:00,
2013-10-30 00:02:00,60.2,56.3,30.23,NE,55,0.0,0.0,87,0.00,,,0.00,Wunderground v.1.15,2013-10-30 04:02:00,
2013-10-30 00:07:00,60.2,56.3,30.24,NE,55,0.0,0.0,87,0.00,,,0.00,Wunderground v.1.15,2013-10-30 04:07:00,
2013-10-30 00:11:00,60.2,56.0,30.24,NE,55,0.0,0.0,86,0.00,,,0.00,Wunderground v.1.15,2013-10-30 04:11:00,
2013-10-30 00:12:00,60.2,56.3,30.24,NE,55,0.0,0.0,87,0.00,,,0.00,Wunderground v.1.15,2013-10-30 04:12:00,
2013-10-30 00:17:00,60.2,56.3,30.24,NE,55,0.0,0.0,87,0.00,,,0.00,Wunderground v.1.15,2013-10-30 04:17:00,
2013-10-30 00:21:00,60.1,56.2,30.24,NE,55,0.0,0.0,87,0.00,,,0.00,Wunderground v.1.15,2013-10-30 04:21:00,
2013-10-30 00:26:00,60.1,56.2,30.24,NE,55,0.0,0.0,87,0.00,,,0.00,Wunderground v.1.15,2013-10-30 04:26:00,
2013-10-30 00:32:00,60.1,56.2,30.24,NE,55,0.0,0.0,87,0.00,,,0.00,Wunderground v.1.15,2013-10-30 04:32:00,
2013-10-30 00:37:00,60.1,56.2,30.23,NE,55,0.0,0.0,87,0.00,,,0.00,Wunderground v.1.15,2013-10-30 04:37:00,
2013-10-30 00:43:00,60.1,56.2,30.23,NE,55,0.0,0.0,87,0.00,,,0.00,Wunderground v.1.15,2013-10-30 04:43:00,
2013-10-30 00:48:00,59.9,56.0,30.23,NE,55,0.0,0.0,87,0.00,,,0.00,Wunderground v.1.15,2013-10-30 04:48:00,
2013-10-30 00:54:00,59.8,56.2,30.23,NE,55,0.0,0.0,88,0.00,,,0.00,Wunderground v.1.15,2013-10-30 04:54:00,
2013-10-30 01:01:00,59.6,56.0,30.23,NE,55,0.0,0.0,88,0.00,,,0.00,Wunderground v.1.15,2013-10-30 05:01:00,
2013-10-30 01:06:00,59.5,56.3,30.22,NE,55,0.0,0.0,89,0.00,,,0.00,Wunderground v.1.15,2013-10-30 05:06:00,
2013-10-30 01:11:00,59.5,56.3,30.22,NE,55,0.0,0.0,89,0.00,,,0.00,Wunderground v.1.15,2013-10-30 05:11:00,
2013-10-30 01:17:00,59.3,56.1,30.22,NE,55,0.0,0.0,89,0.00,,,0.00,Wunderground v.1.15,2013-10-30 05:17:00,
2013-10-30 01:22:00,59.2,56.3,30.22,NE,55,0.0,0.0,90,0.00,,,0.00,Wunderground v.1.15,2013-10-30 05:22:00,
2013-10-30 01:28:00,59.2,56.3,30.22,NE,55,0.0,0.0,90,0.00,,,0.00,Wunderground v.1.15,2013-10-30 05:28:00,
2013-10-30 01:33:00,59.0,56.4,30.22,NE,55,0.0,0.0,91,0.00,,,0.00,Wunderground v.1.15,2013-10-30 05:33:00,
2013-10-30 01:39:00,59.0,56.4,30.22,NE,55,0.0,0.0,91,0.00,,,0.00,Wunderground v.1.15,2013-10-30 05:39:00,
2013-10-30 01:44:00,58.9,56.3,30.22,NE,55,0.0,0.0,91,0.00,,,0.00,Wunderground v.1.15,2013-10-30 05:44:00,
2013-10-30 01:50:00,58.9,56.6,30.22,NE,55,0.0,0.0,92,0.00,,,0.00,Wunderground v.1.15,2013-10-30 05:50:00,
2013-10-30 01:55:00,58.9,56.3,30.21,NE,55,0.0,0.0,91,0.00,,,0.00,Wunderground v.1.15,2013-10-30 05:55:00,
2013-10-30 02:00:00,58.9,56.6,30.21,NE,55,0.0,0.0,92,0.00,,,0.00,Wunderground v.1.15,2013-10-30 06:00:00,
2013-10-30 02:06:00,58.9,56.6,30.22,NE,55,0.0,0.0,92,0.00,,,0.00,Wunderground v.1.15,2013-10-30 06:06:00,
2013-10-30 02:12:00,58.9,56.6,30.22,NE,55,0.0,0.0,92,0.00,,,0.00,Wunderground v.1.15,2013-10-30 06:12:00,
2013-10-30 02:17:00,58.9,56.6,30.22,NE,55,0.0,0.0,92,0.00,,,0.00,Wunderground v.1.15,2013-10-30 06:17:00,
2013-10-30 02:22:00,58.9,56.6,30.21,NE,55,0.0,0.0,92,0.00,,,0.00,Wunderground v.1.15,2013-10-30 06:22:00,
2013-10-30 02:28:00,58.7,56.4,30.21,NE,55,0.0,0.0,92,0.00,,,0.00,Wunderground v.1.15,2013-10-30 06:28:00,
2013-10-30 02:34:00,58.7,56.4,30.21,NE,55,0.0,0.0,92,0.00,,,0.00,Wunderground v.1.15,2013-10-30 06:34:00,
2013-10-30 02:39:00,58.7,56.4,30.22,NE,55,0.0,0.0,92,0.00,,,0.00,Wunderground v.1.15,2013-10-30 06:39:00,
2013-10-30 02:44:00,58.7,56.4,30.22,NE,55,0.0,0.0,92,0.00,,,0.00,Wunderground v.1.15,2013-10-30 06:44:00,
2013-10-30 02:50:00,58.4,56.1,30.22,NE,55,0.0,0.0,92,0.00,,,0.00,Wunderground v.1.15,2013-10-30 06:50:00,
2013-10-30 02:56:00,58.3,56.3,30.22,NE,55,0.0,0.0,93,0.00,,,0.00,Wunderground v.1.15,2013-10-30 06:56:00,
2013-10-30 03:01:00,58.3,56.3,30.22,NE,55,0.0,0.0,93,0.00,,,0.00,Wunderground v.1.15,2013-10-30 07:01:00,
2013-10-30 03:07:00,58.3,56.3,30.22,NE,55,0.0,0.0,93,0.00,,,0.00,Wunderground v.1.15,2013-10-30 07:07:00,
2013-10-30 03:12:00,58.1,56.1,30.22,NE,55,0.0,0.0,93,0.00,,,0.00,Wunderground v.1.15,2013-10-30 07:12:00,
2013-10-30 03:17:00,58.3,56.3,30.22,NE,55,0.0,0.0,93,0.00,,,0.00,Wunderground v.1.15,2013-10-30 07:17:00,
2013-10-30 03:23:00,58.4,56.4,30.22,NE,55,0.0,0.0,93,0.00,,,0.00,Wunderground v.1.15,2013-10-30 07:23:00,
2013-10-30 03:28:00,58.4,56.4,30.22,NE,55,0.0,0.0,93,0.00,,,0.00,Wunderground v.1.15,2013-10-30 07:28:00,
2013-10-30 03:34:00,58.6,56.6,30.22,NE,55,0.0,0.0,93,0.00,,,0.00,Wunderground v.1.15,2013-10-30 07:34:00,
2013-10-30 03:39:00,58.4,56.4,30.21,NE,55,0.0,0.0,93,0.00,,,0.00,Wunderground v.1.15,2013-10-30 07:39:00,
2013-10-30 03:45:00,58.4,56.1,30.21,NE,55,0.0,0.0,92,0.00,,,0.00,Wunderground v.1.15,2013-10-30 07:45:00,
2013-10-30 03:50:00,58.4,56.1,30.21,NE,55,0.0,0.0,92,0.00,,,0.00,Wunderground v.1.15,2013-10-30 07:50:00,
2013-10-30 03:56:00,58.6,56.3,30.22,NE,55,0.0,0.0,92,0.00,,,0.00,Wunderground v.1.15,2013-10-30 07:56:00,
2013-10-30 04:01:00,58.6,56.3,30.22,NE,55,0.0,0.0,92,0.00,,,0.00,Wunderground v.1.15,2013-10-30 08:01:00,
2013-10-30 04:07:00,58.6,56.3,30.22,NE,55,0.0,0.0,92,0.00,,,0.00,Wunderground v.1.15,2013-10-30 08:07:00,
2013-10-30 04:12:00,58.4,56.4,30.22,NE,55,0.0,0.0,93,0.00,,,0.00,Wunderground v.1.15,2013-10-30 08:12:00,
2013-10-30 04:18:00,58.3,56.3,30.22,NE,55,0.0,0.0,93,0.00,,,0.00,Wunderground v.1.15,2013-10-30 08:18:00,
2013-10-30 04:23:00,58.1,56.4,30.22,NE,55,0.0,0.0,94,0.00,,,0.00,Wunderground v.1.15,2013-10-30 08:23:00,
2013-10-30 04:29:00,58.1,56.4,30.22,NE,55,0.0,0.0,94,0.00,,,0.00,Wunderground v.1.15,2013-10-30 08:29:00,
2013-10-30 04:34:00,58.1,56.4,30.22,NE,55,0.0,0.0,94,0.00,,,0.00,Wunderground v.1.15,2013-10-30 08:34:00,
2013-10-30 04:40:00,58.3,56.6,30.21,NE,55,0.0,0.0,94,0.00,,,0.00,Wunderground v.1.15,2013-10-30 08:40:00,
2013-10-30 04:45:00,58.3,56.6,30.21,NE,55,0.0,0.0,94,0.00,,,0.00,Wunderground v.1.15,2013-10-30 08:45:00,
2013-10-30 04:51:00,58.3,56.6,30.22,NE,55,0.0,0.0,94,0.00,,,0.00,Wunderground v.1.15,2013-10-30 08:51:00,
2013-10-30 04:56:00,58.4,56.7,30.22,NE,55,0.0,0.0,94,0.00,,,0.00,Wunderground v.1.15,2013-10-30 08:56:00,
2013-10-30 05:02:00,58.4,56.4,30.22,NE,55,0.0,0.0,93,0.00,,,0.00,Wunderground v.1.15,2013-10-30 09:02:00,
2013-10-30 05:07:00,58.4,56.4,30.22,NE,55,0.0,0.0,93,0.00,,,0.00,Wunderground v.1.15,2013-10-30 09:07:00,
2013-10-30 05:13:00,58.3,56.3,30.22,NE,55,0.0,0.0,93,0.00,,,0.00,Wunderground v.1.15,2013-10-30 09:13:00,
2013-10-30 05:18:00,58.3,56.3,30.22,NE,55,0.0,0.0,93,0.00,,,0.00,Wunderground v.1.15,2013-10-30 09:18:00,
2013-10-30 05:24:00,58.3,56.3,30.22,NE,55,0.0,0.0,93,0.00,,,0.00,Wunderground v.1.15,2013-10-30 09:24:00,
2013-10-30 05:29:00,58.3,56.3,30.22,NE,55,0.0,0.0,93,0.00,,,0.00,Wunderground v.1.15,2013-10-30 09:29:00,
2013-10-30 05:34:00,58.1,56.1,30.22,NE,55,0.0,0.0,93,0.00,,,0.00,Wunderground v.1.15,2013-10-30 09:34:00,
2013-10-30 05:40:00,58.1,56.4,30.22,NE,55,0.0,0.0,94,0.00,,,0.00,Wunderground v.1.15,2013-10-30 09:40:00,
2013-10-30 05:46:00,58.0,56.3,30.22,NE,55,0.0,0.0,94,0.00,,,0.00,Wunderground v.1.15,2013-10-30 09:46:00,
2013-10-30 05:51:00,58.0,56.3,30.23,NE,55,0.0,0.0,94,0.00,,,0.00,Wunderground v.1.15,2013-10-30 09:51:00,
2013-10-30 05:56:00,58.0,56.3,30.23,NE,55,0.0,0.0,94,0.00,,,0.00,Wunderground v.1.15,2013-10-30 09:56:00,
2013-10-30 06:02:00,58.1,56.4,30.23,NE,55,0.0,0.0,94,0.00,,,0.00,Wunderground v.1.15,2013-10-30 10:02:00,
2013-10-30 06:07:00,58.0,56.3,30.23,NE,55,0.0,0.0,94,0.00,,,0.00,Wunderground v.1.15,2013-10-30 10:07:00,
2013-10-30 06:13:00,57.8,56.1,30.23,NE,55,0.0,0.0,94,0.00,,,0.00,Wunderground v.1.15,2013-10-30 10:13:00,
2013-10-30 06:19:00,57.8,56.1,30.23,NE,55,0.0,0.0,94,0.00,,,0.00,Wunderground v.1.15,2013-10-30 10:19:00,
2013-10-30 06:25:00,57.8,56.1,30.23,NE,55,1.0,2.0,94,0.00,,,0.00,Wunderground v.1.15,2013-10-30 10:25:00,
2013-10-30 06:31:00,57.8,56.1,30.23,NE,55,0.0,1.0,94,0.00,,,0.00,Wunderground v.1.15,2013-10-30 10:31:00,
2013-10-30 06:36:00,57.8,56.1,30.23,NE,55,1.0,2.0,94,0.00,,,0.00,Wunderground v.1.15,2013-10-30 10:36:00,
2013-10-30 06:41:00,57.6,55.9,30.23,NE,55,1.0,1.0,94,0.00,,,0.00,Wunderground v.1.15,2013-10-30 10:41:00,
2013-10-30 06:47:00,57.6,55.9,30.23,NE,55,0.0,1.0,94,0.00,,,0.00,Wunderground v.1.15,2013-10-30 10:47:00,
2013-10-30 06:52:00,57.6,55.9,30.24,NE,55,0.0,1.0,94,0.00,,,0.00,Wunderground v.1.15,2013-10-30 10:52:00,
2013-10-30 06:58:00,57.6,55.6,30.24,NE,55,0.0,1.0,93,0.00,,,0.00,Wunderground v.1.15,2013-10-30 10:58:00,
2013-10-30 07:04:00,57.6,55.6,30.24,NE,55,0.0,0.0,93,0.00,,,0.00,Wunderground v.1.15,2013-10-30 11:04:00,
2013-10-30 07:10:00,57.6,55.6,30.24,NE,55,0.0,0.0,93,0.00,,,0.00,Wunderground v.1.15,2013-10-30 11:10:00,
2013-10-30 07:16:00,57.6,55.3,30.24,NE,55,0.0,1.0,92,0.00,,,0.00,Wunderground v.1.15,2013-10-30 11:16:00,
2013-10-30 07:21:00,58.0,55.7,30.24,NE,55,1.0,1.0,92,0.00,,,0.00,Wunderground v.1.15,2013-10-30 11:21:00,
2013-10-30 07:26:00,58.0,55.4,30.24,NE,55,1.0,2.0,91,0.00,,,0.00,Wunderground v.1.15,2013-10-30 11:26:00,
2013-10-30 07:32:00,58.0,55.4,30.24,NE,55,1.0,2.0,91,0.00,,,0.00,Wunderground v.1.15,2013-10-30 11:32:00,
2013-10-30 07:37:00,58.0,55.1,30.24,NE,55,1.0,2.0,90,0.00,,,0.00,Wunderground v.1.15,2013-10-30 11:37:00,
2013-10-30 07:43:00,58.0,55.1,30.24,NE,55,1.0,1.0,90,0.00,,,0.00,Wunderground v.1.15,2013-10-30 11:43:00,
2013-10-30 07:48:00,58.1,54.9,30.24,NE,55,0.0,1.0,89,0.00,,,0.00,Wunderground v.1.15,2013-10-30 11:48:00,
2013-10-30 07:54:00,58.1,54.9,30.24,NE,55,0.0,0.0,89,0.00,,,0.00,Wunderground v.1.15,2013-10-30 11:54:00,
2013-10-30 07:59:00,58.0,54.8,30.24,NE,55,0.0,0.0,89,0.00,,,0.00,Wunderground v.1.15,2013-10-30 11:59:00,
2013-10-30 08:05:00,58.0,54.8,30.24,NE,55,0.0,2.0,89,0.00,,,0.00,Wunderground v.1.15,2013-10-30 12:05:00,
2013-10-30 08:11:00,58.0,54.8,30.25,NE,55,0.0,0.0,89,0.00,,,0.00,Wunderground v.1.15,2013-10-30 12:11:00,
2013-10-30 08:17:00,58.0,54.8,30.25,NE,55,0.0,0.0,89,0.00,,,0.00,Wunderground v.1.15,2013-10-30 12:17:00,
2013-10-30 08:22:00,58.1,54.6,30.25,NE,55,0.0,0.0,88,0.00,,,0.00,Wunderground v.1.15,2013-10-30 12:22:00,
2013-10-30 08:28:00,58.3,54.8,30.25,NE,55,0.0,0.0,88,0.00,,,0.00,Wunderground v.1.15,2013-10-30 12:28:00,
2013-10-30 08:33:00,58.4,54.9,30.25,NE,55,0.0,0.0,88,0.00,,,0.00,Wunderground v.1.15,2013-10-30 12:33:00,
2013-10-30 08:38:00,58.4,54.9,30.25,NE,55,0.0,0.0,88,0.00,,,0.00,Wunderground v.1.15,2013-10-30 12:38:00,
2013-10-30 08:44:00,58.3,54.8,30.25,NE,55,0.0,0.0,88,0.00,,,0.00,Wunderground v.1.15,2013-10-30 12:44:00,
2013-10-30 08:49:00,58.3,54.8,30.25,NE,55,0.0,0.0,88,0.00,,,0.00,Wunderground v.1.15,2013-10-30 12:49:00,
2013-10-30 08:55:00,58.1,54.9,30.25,NE,55,0.0,0.0,89,0.00,,,0.00,Wunderground v.1.15,2013-10-30 12:55:00,
2013-10-30 09:00:00,58.1,54.9,30.25,NE,55,0.0,0.0,89,0.00,,,0.00,Wunderground v.1.15,2013-10-30 13:00:00,
2013-10-30 09:06:00,58.1,54.9,30.25,NE,55,0.0,1.0,89,0.00,,,0.00,Wunderground v.1.15,2013-10-30 13:06:00,
2013-10-30 09:11:00,58.1,54.9,30.25,NE,55,0.0,0.0,89,0.00,,,0.00,Wunderground v.1.15,2013-10-30 13:11:00,
2013-10-30 09:17:00,58.1,55.2,30.25,NE,55,0.0,0.0,90,0.00,,,0.00,Wunderground v.1.15,2013-10-30 13:17:00,
2013-10-30 09:22:00,58.0,55.1,30.26,NE,55,0.0,0.0,90,0.00,,,0.00,Wunderground v.1.15,2013-10-30 13:22:00,
2013-10-30 09:28:00,58.6,56.0,30.26,NE,55,0.0,0.0,91,0.00,,,0.00,Wunderground v.1.15,2013-10-30 13:28:00,
2013-10-30 09:33:00,59.0,56.1,30.26,NE,55,0.0,0.0,90,0.00,,,0.00,Wunderground v.1.15,2013-10-30 13:33:00,
2013-10-30 09:39:00,59.8,56.2,30.26,NE,55,0.0,0.0,88,0.00,,,0.00,Wunderground v.1.15,2013-10-30 13:39:00,
2013-10-30 09:44:00,60.9,56.4,30.26,NE,55,0.0,0.0,85,0.00,,,0.00,Wunderground v.1.15,2013-10-30 13:44:00,
2013-10-30 09:49:00,62.1,56.9,30.26,NE,55,0.0,0.0,83,0.00,,,0.00,Wunderground v.1.15,2013-10-30 13:49:00,
2013-10-30 09:55:00,63.1,56.5,30.26,NE,55,0.0,0.0,79,0.00,,,0.00,Wunderground v.1.15,2013-10-30 13:55:00,
2013-10-30 10:00:00,63.7,56.4,30.26,NE,55,0.0,0.0,77,0.00,,,0.00,Wunderground v.1.15,2013-10-30 14:00:00,
2013-10-30 10:06:00,64.3,56.9,30.25,NE,55,0.0,0.0,77,0.00,,,0.00,Wunderground v.1.15,2013-10-30 14:06:00,
2013-10-30 10:11:00,65.2,57.4,30.25,NE,55,0.0,0.0,76,0.00,,,0.00,Wunderground v.1.15,2013-10-30 14:11:00,
2013-10-30 10:17:00,65.2,57.4,30.25,NE,55,0.0,0.0,76,0.00,,,0.00,Wunderground v.1.15,2013-10-30 14:17:00,
2013-10-30 10:22:00,65.2,57.8,30.25,NE,55,0.0,0.0,77,0.00,,,0.00,Wunderground v.1.15,2013-10-30 14:22:00,
2013-10-30 10:28:00,66.0,57.8,30.25,NE,55,0.0,0.0,75,0.00,,,0.00,Wunderground v.1.15,2013-10-30 14:28:00,
2013-10-30 10:33:00,66.4,57.5,30.25,NE,55,0.0,1.0,73,0.00,,,0.00,Wunderground v.1.15,2013-10-30 14:33:00,
2013-10-30 10:39:00,66.6,58.1,30.25,NE,55,0.0,3.0,74,0.00,,,0.00,Wunderground v.1.15,2013-10-30 14:39:00,
2013-10-30 10:44:00,65.6,57.5,30.25,NE,55,2.0,4.0,75,0.00,,,0.00,Wunderground v.1.15,2013-10-30 14:44:00,
2013-10-30 10:50:00,65.2,57.4,30.25,NE,55,3.0,3.0,76,0.00,,,0.00,Wunderground v.1.15,2013-10-30 14:50:00,
2013-10-30 10:55:00,65.0,57.2,30.26,NE,55,3.0,3.0,76,0.00,,,0.00,Wunderground v.1.15,2013-10-30 14:55:00,
2013-10-30 11:01:00,65.0,57.6,30.26,NE,55,3.0,4.0,77,0.00,,,0.00,Wunderground v.1.15,2013-10-30 15:01:00,
2013-10-30 11:06:00,64.8,57.4,30.25,NE,45,4.0,5.0,77,0.00,,,0.00,Wunderground v.1.15,2013-10-30 15:06:00,
2013-10-30 11:12:00,64.8,57.4,30.25,NE,50,4.0,6.0,77,0.00,,,0.00,Wunderground v.1.15,2013-10-30 15:12:00,
2013-10-30 11:17:00,64.8,57.8,30.25,NE,53,4.0,6.0,78,0.00,,,0.00,Wunderground v.1.15,2013-10-30 15:17:00,
2013-10-30 11:23:00,65.5,58.1,30.25,NE,49,4.0,6.0,77,0.00,,,0.00,Wunderground v.1.15,2013-10-30 15:23:00,
2013-10-30 11:28:00,66.1,57.6,30.25,NE,53,4.0,6.0,74,0.00,,,0.00,Wunderground v.1.15,2013-10-30 15:28:00,
2013-10-30 11:34:00,66.3,57.8,30.25,ENE,65,3.0,7.0,74,0.00,,,0.00,Wunderground v.1.15,2013-10-30 15:34:00,
2013-10-30 11:39:00,66.8,57.9,30.25,ENE,68,4.0,4.0,73,0.00,,,0.00,Wunderground v.1.15,2013-10-30 15:39:00,
2013-10-30 11:45:00,67.4,58.4,30.25,ENE,63,3.0,5.0,73,0.00,,,0.00,Wunderground v.1.15,2013-10-30 15:45:00,
2013-10-30 11:50:00,67.8,58.1,30.25,ENE,68,3.0,5.0,71,0.00,,,0.00,Wunderground v.1.15,2013-10-30 15:50:00,
2013-10-30 11:56:00,67.8,58.4,30.24,ENE,64,3.0,6.0,72,0.00,,,0.00,Wunderground v.1.15,2013-10-30 15:56:00,
2013-10-30 12:01:00,68.3,58.1,30.24,NE,34,4.0,6.0,70,0.00,,,0.00,Wunderground v.1.15,2013-10-30 16:01:00,
2013-10-30 12:07:00,68.3,58.1,30.24,East,80,5.0,6.0,70,0.00,,,0.00,Wunderground v.1.15,2013-10-30 16:07:00,
2013-10-30 12:12:00,67.9,58.1,30.24,ENE,65,5.0,5.0,71,0.00,,,0.00,Wunderground v.1.15,2013-10-30 16:12:00,
2013-10-30 12:17:00,68.3,58.5,30.24,ENE,61,4.0,5.0,71,0.00,,,0.00,Wunderground v.1.15,2013-10-30 16:17:00,
2013-10-30 12:23:00,69.6,59.0,30.24,NE,49,3.0,6.0,69,0.00,,,0.00,Wunderground v.1.15,2013-10-30 16:23:00,
2013-10-30 12:29:00,69.9,58.4,30.24,ENE,70,2.0,2.0,67,0.00,,,0.00,Wunderground v.1.15,2013-10-30 16:29:00,
2013-10-30 12:35:00,69.6,58.2,30.24,ENE,75,2.0,5.0,67,0.00,,,0.00,Wunderground v.1.15,2013-10-30 16:35:00,
2013-10-30 12:41:00,69.6,58.6,30.22,ENE,70,2.0,4.0,68,0.00,,,0.00,Wunderground v.1.15,2013-10-30 16:41:00,
2013-10-30 12:46:00,69.6,58.2,30.22,NE,54,3.0,7.0,67,0.00,,,0.00,Wunderground v.1.15,2013-10-30 16:46:00,
2013-10-30 12:52:00,69.8,58.3,30.21,NNE,27,4.0,5.0,67,0.00,,,0.00,Wunderground v.1.15,2013-10-30 16:52:00,
2013-10-30 12:57:00,70.6,59.1,30.21,NNE,33,4.0,5.0,67,0.00,,,0.00,Wunderground v.1.15,2013-10-30 16:57:00,
2013-10-30 13:03:00,71.5,57.8,30.21,ENE,64,2.0,6.0,62,0.00,,,0.00,Wunderground v.1.15,2013-10-30 17:03:00,
2013-10-30 13:08:00,71.5,58.2,30.20,ENE,66,2.0,6.0,63,0.00,,,0.00,Wunderground v.1.15,2013-10-30 17:08:00,
2013-10-30 13:14:00,71.6,56.0,30.20,SW,233,2.0,2.0,58,0.00,,,0.00,Wunderground v.1.15,2013-10-30 17:14:00,
2013-10-30 13:19:00,72.3,58.1,30.20,ENE,63,2.0,2.0,61,0.00,,,0.00,Wunderground v.1.15,2013-10-30 17:19:00,
2013-10-30 13:24:00,72.3,57.6,30.19,ENE,59,1.0,4.0,60,0.00,,,0.00,Wunderground v.1.15,2013-10-30 17:24:00,
2013-10-30 13:30:00,71.8,58.1,30.19,ENE,60,1.0,1.0,62,0.00,,,0.00,Wunderground v.1.15,2013-10-30 17:30:00,
2013-10-30 13:36:00,71.8,58.1,30.19,ENE,60,1.0,4.0,62,0.00,,,0.00,Wunderground v.1.15,2013-10-30 17:36:00,
2013-10-30 13:42:00,72.8,57.2,30.19,ENE,75,1.0,4.0,58,0.00,,,0.00,Wunderground v.1.15,2013-10-30 17:42:00,
2013-10-30 13:47:00,73.7,58.0,30.19,ENE,75,1.0,4.0,58,0.00,,,0.00,Wunderground v.1.15,2013-10-30 17:47:00,
2013-10-30 13:53:00,74.4,56.2,30.17,ENE,70,0.0,1.0,53,0.00,,,0.00,Wunderground v.1.15,2013-10-30 17:53:00,
2013-10-30 13:59:00,74.2,51.5,30.17,WSW,258,1.0,1.0,45,0.00,,,0.00,Wunderground v.1.15,2013-10-30 17:59:00,
2013-10-30 14:04:00,73.9,51.2,30.17,NW,315,2.0,4.0,45,0.00,,,0.00,Wunderground v.1.15,2013-10-30 18:04:00,
2013-10-30 14:10:00,73.3,51.3,30.17,West,264,1.0,1.0,46,0.00,,,0.00,Wunderground v.1.15,2013-10-30 18:10:00,
2013-10-30 14:15:00,73.5,55.3,30.17,West,264,1.0,1.0,53,0.00,,,0.00,Wunderground v.1.15,2013-10-30 18:15:00,
2013-10-30 14:21:00,73.7,55.5,30.16,NE,46,0.0,4.0,53,0.00,,,0.00,Wunderground v.1.15,2013-10-30 18:21:00,
2013-10-30 14:26:00,73.3,55.6,30.16,ENE,60,0.0,4.0,54,0.00,,,0.00,Wunderground v.1.15,2013-10-30 18:26:00,
2013-10-30 14:32:00,73.3,54.6,30.16,NE,47,0.0,3.0,52,0.00,,,0.00,Wunderground v.1.15,2013-10-30 18:32:00,
2013-10-30 14:37:00,73.3,54.1,30.15,NE,46,0.0,3.0,51,0.00,,,0.00,Wunderground v.1.15,2013-10-30 18:37:00,
2013-10-30 14:43:00,73.7,55.0,30.15,North,1,0.0,1.0,52,0.00,,,0.00,Wunderground v.1.15,2013-10-30 18:43:00,
2013-10-30 14:48:00,73.9,53.5,30.15,NE,39,1.0,6.0,49,0.00,,,0.00,Wunderground v.1.15,2013-10-30 18:48:00,
2013-10-30 14:53:00,73.9,53.5,30.15,ENE,74,1.0,8.0,49,0.00,,,0.00,Wunderground v.1.15,2013-10-30 18:53:00,
2013-10-30 14:59:00,73.9,52.4,30.15,NE,50,1.0,1.0,47,0.00,,,0.00,Wunderground v.1.15,2013-10-30 18:59:00,
2013-10-30 15:04:00,74.0,51.3,30.15,North,1,0.0,1.0,45,0.00,,,0.00,Wunderground v.1.15,2013-10-30 19:04:00,
2013-10-30 15:10:00,73.7,51.0,30.15,North,0,0.0,0.0,45,0.00,,,0.00,Wunderground v.1.15,2013-10-30 19:10:00,
2013-10-30 15:15:00,73.5,50.9,30.15,NW,309,0.0,0.0,45,0.00,,,0.00,Wunderground v.1.15,2013-10-30 19:15:00,
2013-10-30 15:21:00,73.2,51.2,30.14,WNW,300,0.0,3.0,46,0.00,,,0.00,Wunderground v.1.15,2013-10-30 19:21:00,
2013-10-30 15:26:00,73.0,51.6,30.14,WNW,301,0.0,3.0,47,0.00,,,0.00,Wunderground v.1.15,2013-10-30 19:26:00,
2013-10-30 15:32:00,72.8,50.8,30.14,WNW,300,0.0,0.0,46,0.00,,,0.00,Wunderground v.1.15,2013-10-30 19:32:00,
2013-10-30 15:37:00,72.8,50.8,30.15,NW,326,0.0,0.0,46,0.00,,,0.00,Wunderground v.1.15,2013-10-30 19:37:00,
2013-10-30 15:42:00,73.0,51.0,30.15,NW,323,0.0,1.0,46,0.00,,,0.00,Wunderground v.1.15,2013-10-30 19:42:00,
2013-10-30 15:48:00,73.3,50.1,30.15,NW,310,0.0,1.0,44,0.00,,,0.00,Wunderground v.1.15,2013-10-30 19:48:00,
2013-10-30 15:54:00,73.7,50.4,30.14,NNE,29,0.0,3.0,44,0.00,,,0.00,Wunderground v.1.15,2013-10-30 19:54:00,
2013-10-30 15:59:00,73.7,50.4,30.14,NNE,29,0.0,0.0,44,0.00,,,0.00,Wunderground v.1.15,2013-10-30 19:59:00,
2013-10-30 16:04:00,73.7,50.4,30.14,WNW,290,0.0,5.0,44,0.00,,,0.00,Wunderground v.1.15,2013-10-30 20:04:00,
2013-10-30 16:10:00,73.7,50.4,30.14,ENE,73,0.0,0.0,44,0.00,,,0.00,Wunderground v.1.15,2013-10-30 20:10:00,
2013-10-30 16:15:00,73.5,50.9,30.14,NE,39,0.0,3.0,45,0.00,,,0.00,Wunderground v.1.15,2013-10-30 20:15:00,
2013-10-30 16:21:00,73.2,51.8,30.13,NE,39,0.0,0.0,47,0.00,,,0.00,Wunderground v.1.15,2013-10-30 20:21:00,
2013-10-30 16:26:00,73.2,52.9,30.13,NE,39,0.0,0.0,49,0.00,,,0.00,Wunderground v.1.15,2013-10-30 20:26:00,
2013-10-30 16:32:00,72.8,53.1,30.13,NE,39,0.0,0.0,50,0.00,,,0.00,Wunderground v.1.15,2013-10-30 20:32:00,
2013-10-30 16:37:00,72.5,53.9,30.12,NE,40,0.0,2.0,52,0.00,,,0.00,Wunderground v.1.15,2013-10-30 20:37:00,
2013-10-30 16:43:00,72.1,54.5,30.12,NE,40,0.0,2.0,54,0.00,,,0.00,Wunderground v.1.15,2013-10-30 20:43:00,
2013-10-30 16:48:00,72.0,53.9,30.12,NE,40,0.0,2.0,53,0.00,,,0.00,Wunderground v.1.15,2013-10-30 20:48:00,
2013-10-30 16:54:00,72.0,54.9,30.13,NE,40,0.0,0.0,55,0.00,,,0.00,Wunderground v.1.15,2013-10-30 20:54:00,
2013-10-30 16:59:00,71.8,54.3,30.13,NE,40,0.0,0.0,54,0.00,,,0.00,Wunderground v.1.15,2013-10-30 20:59:00,
2013-10-30 17:05:00,71.6,54.6,30.13,NE,40,0.0,0.0,55,0.00,,,0.00,Wunderground v.1.15,2013-10-30 21:05:00,
2013-10-30 17:10:00,71.3,54.8,30.13,NE,40,0.0,0.0,56,0.00,,,0.00,Wunderground v.1.15,2013-10-30 21:10:00,
2013-10-30 17:16:00,71.1,55.6,30.13,NE,40,0.0,0.0,58,0.00,,,0.00,Wunderground v.1.15,2013-10-30 21:16:00,
2013-10-30 17:21:00,70.8,55.8,30.13,NE,40,0.0,0.0,59,0.00,,,0.00,Wunderground v.1.15,2013-10-30 21:21:00,
2013-10-30 17:27:00,70.6,56.0,30.13,NE,40,0.0,0.0,60,0.00,,,0.00,Wunderground v.1.15,2013-10-30 21:27:00,
2013-10-30 17:32:00,70.3,56.2,30.13,NE,40,0.0,0.0,61,0.00,,,0.00,Wunderground v.1.15,2013-10-30 21:32:00,
2013-10-30 17:37:00,70.3,56.7,30.13,NE,40,0.0,0.0,62,0.00,,,0.00,Wunderground v.1.15,2013-10-30 21:37:00,
2013-10-30 17:43:00,69.9,55.8,30.13,NE,40,0.0,0.0,61,0.00,,,0.00,Wunderground v.1.15,2013-10-30 21:43:00,
2013-10-30 17:48:00,69.8,56.2,30.13,NE,40,0.0,0.0,62,0.00,,,0.00,Wunderground v.1.15,2013-10-30 21:48:00,
2013-10-30 17:54:00,69.6,56.0,30.13,NE,40,0.0,0.0,62,0.00,,,0.00,Wunderground v.1.15,2013-10-30 21:54:00,
2013-10-30 18:00:00,69.4,56.3,30.13,NE,40,0.0,0.0,63,0.00,,,0.00,Wunderground v.1.15,2013-10-30 22:00:00,
2013-10-30 18:06:00,69.3,56.2,30.12,NE,40,0.0,0.0,63,0.00,,,0.00,Wunderground v.1.15,2013-10-30 22:06:00,
2013-10-30 18:12:00,69.1,56.4,30.12,NE,40,0.0,0.0,64,0.00,,,0.00,Wunderground v.1.15,2013-10-30 22:12:00,
2013-10-30 18:17:00,68.9,56.2,30.12,NE,40,0.0,0.0,64,0.00,,,0.00,Wunderground v.1.15,2013-10-30 22:17:00,
2013-10-30 18:22:00,68.8,56.1,30.12,NE,40,0.0,0.0,64,0.00,,,0.00,Wunderground v.1.15,2013-10-30 22:22:00,
2013-10-30 18:28:00,68.6,55.9,30.12,NE,40,0.0,2.0,64,0.00,,,0.00,Wunderground v.1.15,2013-10-30 22:28:00,
2013-10-30 18:33:00,68.4,55.7,30.12,ENE,59,1.0,5.0,64,0.00,,,0.00,Wunderground v.1.15,2013-10-30 22:33:00,
2013-10-30 18:39:00,68.4,55.7,30.12,ENE,72,2.0,2.0,64,0.00,,,0.00,Wunderground v.1.15,2013-10-30 22:39:00,
2013-10-30 18:44:00,68.3,56.1,30.12,ENE,72,1.0,2.0,65,0.00,,,0.00,Wunderground v.1.15,2013-10-30 22:44:00,
2013-10-30 18:50:00,68.1,55.9,30.12,ENE,72,0.0,0.0,65,0.00,,,0.00,Wunderground v.1.15,2013-10-30 22:50:00,
2013-10-30 18:56:00,67.8,55.6,30.12,ENE,72,0.0,0.0,65,0.00,,,0.00,Wunderground v.1.15,2013-10-30 22:56:00,
2013-10-30 19:02:00,67.6,55.4,30.12,ENE,72,0.0,0.0,65,0.00,,,0.00,Wunderground v.1.15,2013-10-30 23:02:00,
2013-10-30 19:07:00,67.4,55.2,30.13,ENE,72,0.0,0.0,65,0.00,,,0.00,Wunderground v.1.15,2013-10-30 23:07:00,
2013-10-30 19:13:00,67.3,54.7,30.13,ENE,72,0.0,0.0,64,0.00,,,0.00,Wunderground v.1.15,2013-10-30 23:13:00,
2013-10-30 19:19:00,67.1,54.9,30.13,ENE,72,0.0,0.0,65,0.00,,,0.00,Wunderground v.1.15,2013-10-30 23:19:00,
2013-10-30 19:24:00,66.9,54.7,30.14,ENE,72,0.0,0.0,65,0.00,,,0.00,Wunderground v.1.15,2013-10-30 23:24:00,
2013-10-30 19:30:00,66.8,54.7,30.14,ENE,72,0.0,0.0,65,0.00,,,0.00,Wunderground v.1.15,2013-10-30 23:30:00,
2013-10-30 19:35:00,66.6,54.5,30.14,ENE,72,0.0,0.0,65,0.00,,,0.00,Wunderground v.1.15,2013-10-30 23:35:00,
2013-10-30 19:41:00,66.4,54.3,30.14,ENE,72,0.0,2.0,65,0.00,,,0.00,Wunderground v.1.15,2013-10-30 23:41:00,
2013-10-30 19:46:00,66.3,54.2,30.14,ENE,72,0.0,2.0,65,0.00,,,0.00,Wunderground v.1.15,2013-10-30 23:46:00,
2013-10-30 19:52:00,66.3,54.2,30.14,ENE,72,0.0,0.0,65,0.00,,,0.00,Wunderground v.1.15,2013-10-30 23:52:00,
2013-10-30 19:57:00,66.1,54.4,30.14,ENE,72,0.0,0.0,66,0.00,,,0.00,Wunderground v.1.15,2013-10-30 23:57:00,
2013-10-30 20:02:00,66.0,54.3,30.14,ENE,72,0.0,0.0,66,0.00,,,0.00,Wunderground v.1.15,2013-10-31 00:02:00,
2013-10-30 20:08:00,65.8,54.1,30.14,ENE,72,0.0,0.0,66,0.00,,,0.00,Wunderground v.1.15,2013-10-31 00:08:00,
2013-10-30 20:13:00,65.6,54.3,30.14,ENE,72,0.0,0.0,67,0.00,,,0.00,Wunderground v.1.15,2013-10-31 00:13:00,
2013-10-30 20:19:00,65.5,54.2,30.14,ENE,72,0.0,0.0,67,0.00,,,0.00,Wunderground v.1.15,2013-10-31 00:19:00,
2013-10-30 20:24:00,65.3,54.1,30.14,ENE,72,0.0,0.0,67,0.00,,,0.00,Wunderground v.1.15,2013-10-31 00:24:00,
2013-10-30 20:30:00,65.2,54.4,30.14,ENE,72,0.0,0.0,68,0.00,,,0.00,Wunderground v.1.15,2013-10-31 00:30:00,
2013-10-30 20:35:00,65.2,54.8,30.14,ENE,72,0.0,0.0,69,0.00,,,0.00,Wunderground v.1.15,2013-10-31 00:35:00,
2013-10-30 20:41:00,65.0,54.2,30.14,ENE,72,0.0,0.0,68,0.00,,,0.00,Wunderground v.1.15,2013-10-31 00:41:00,
2013-10-30 20:46:00,65.0,53.8,30.14,ENE,72,0.0,0.0,67,0.00,,,0.00,Wunderground v.1.15,2013-10-31 00:46:00,
2013-10-30 20:52:00,65.0,54.6,30.14,ENE,72,0.0,0.0,69,0.00,,,0.00,Wunderground v.1.15,2013-10-31 00:52:00,
2013-10-30 20:57:00,64.8,54.0,30.14,ENE,72,0.0,0.0,68,0.00,,,0.00,Wunderground v.1.15,2013-10-31 00:57:00,
2013-10-30 21:03:00,64.8,54.0,30.14,ENE,72,0.0,0.0,68,0.00,,,0.00,Wunderground v.1.15,2013-10-31 01:03:00,
2013-10-30 21:08:00,64.7,54.3,30.14,ENE,72,0.0,0.0,69,0.00,,,0.00,Wunderground v.1.15,2013-10-31 01:08:00,
2013-10-30 21:14:00,64.5,53.7,30.14,ENE,72,0.0,0.0,68,0.00,,,0.00,Wunderground v.1.15,2013-10-31 01:14:00,
2013-10-30 21:19:00,64.5,53.3,30.14,ENE,72,0.0,0.0,67,0.00,,,0.00,Wunderground v.1.15,2013-10-31 01:19:00,
2013-10-30 21:25:00,64.5,53.3,30.13,ENE,72,0.0,0.0,67,0.00,,,0.00,Wunderground v.1.15,2013-10-31 01:25:00,
2013-10-30 21:31:00,64.7,53.5,30.13,ENE,72,0.0,0.0,67,0.00,,,0.00,Wunderground v.1.15,2013-10-31 01:31:00,
2013-10-30 21:37:00,64.5,53.7,30.13,ENE,72,0.0,0.0,68,0.00,,,0.00,Wunderground v.1.15,2013-10-31 01:37:00,
2013-10-30 21:42:00,64.5,53.7,30.13,ENE,72,0.0,0.0,68,0.00,,,0.00,Wunderground v.1.15,2013-10-31 01:42:00,
2013-10-30 21:48:00,64.3,53.5,30.13,ENE,72,0.0,0.0,68,0.00,,,0.00,Wunderground v.1.15,2013-10-31 01:48:00,
2013-10-30 21:53:00,64.2,53.8,30.12,ENE,72,0.0,0.0,69,0.00,,,0.00,Wunderground v.1.15,2013-10-31 01:53:00,
2013-10-30 21:59:00,64.2,53.8,30.12,ENE,72,0.0,0.0,69,0.00,,,0.00,Wunderground v.1.15,2013-10-31 01:59:00,
2013-10-30 22:04:00,64.0,53.6,30.12,ENE,72,0.0,0.0,69,0.00,,,0.00,Wunderground v.1.15,2013-10-31 02:04:00,
2013-10-30 22:10:00,64.0,53.6,30.12,ENE,72,0.0,0.0,69,0.00,,,0.00,Wunderground v.1.15,2013-10-31 02:10:00,
2013-10-30 22:15:00,64.0,53.6,30.12,ENE,72,0.0,0.0,69,0.00,,,0.00,Wunderground v.1.15,2013-10-31 02:15:00,
2013-10-30 22:20:00,64.0,53.2,30.12,ENE,72,0.0,0.0,68,0.00,,,0.00,Wunderground v.1.15,2013-10-31 02:20:00,
2013-10-30 22:26:00,64.0,53.6,30.12,ENE,72,0.0,0.0,69,0.00,,,0.00,Wunderground v.1.15,2013-10-31 02:26:00,
2013-10-30 22:32:00,64.0,53.6,30.12,ENE,72,0.0,0.0,69,0.00,,,0.00,Wunderground v.1.15,2013-10-31 02:32:00,
2013-10-30 22:38:00,64.0,53.6,30.13,ENE,72,0.0,0.0,69,0.00,,,0.00,Wunderground v.1.15,2013-10-31 02:38:00,
2013-10-30 22:44:00,63.9,53.5,30.13,ENE,72,0.0,0.0,69,0.00,,,0.00,Wunderground v.1.15,2013-10-31 02:44:00,
2013-10-30 22:49:00,63.7,53.3,30.13,ENE,72,0.0,0.0,69,0.00,,,0.00,Wunderground v.1.15,2013-10-31 02:49:00,
2013-10-30 22:55:00,63.5,53.1,30.13,ENE,72,0.0,0.0,69,0.00,,,0.00,Wunderground v.1.15,2013-10-31 02:55:00,
2013-10-30 23:01:00,63.5,53.1,30.13,ENE,72,0.0,0.0,69,0.00,,,0.00,Wunderground v.1.15,2013-10-31 03:01:00,
2013-10-30 23:07:00,63.4,53.4,30.13,ENE,72,0.0,0.0,70,0.00,,,0.00,Wunderground v.1.15,2013-10-31 03:07:00,
2013-10-30 23:12:00,63.4,53.4,30.13,ENE,72,0.0,0.0,70,0.00,,,0.00,Wunderground v.1.15,2013-10-31 03:12:00,
2013-10-30 23:18:00,63.4,53.0,30.13,ENE,72,0.0,0.0,69,0.00,,,0.00,Wunderground v.1.15,2013-10-31 03:18:00,
2013-10-30 23:23:00,63.5,53.1,30.13,ENE,72,0.0,0.0,69,0.00,,,0.00,Wunderground v.1.15,2013-10-31 03:23:00,
2013-10-30 23:29:00,63.5,53.1,30.13,ENE,72,0.0,0.0,69,0.00,,,0.00,Wunderground v.1.15,2013-10-31 03:29:00,
2013-10-30 23:34:00,63.5,53.1,30.13,ENE,72,0.0,0.0,69,0.00,,,0.00,Wunderground v.1.15,2013-10-31 03:34:00,
2013-10-30 23:39:00,63.4,53.4,30.12,ENE,72,0.0,0.0,70,0.00,,,0.00,Wunderground v.1.15,2013-10-31 03:39:00,
2013-10-30 23:45:00,63.2,53.3,30.12,ENE,72,0.0,0.0,70,0.00,,,0.00,Wunderground v.1.15,2013-10-31 03:45:00,
2013-10-30 23:50:00,63.2,53.3,30.12,ENE,72,0.0,0.0,70,0.00,,,0.00,Wunderground v.1.15,2013-10-31 03:50:00,
2013-10-30 23:56:00,63.1,53.5,30.11,ENE,72,0.0,0.0,71,0.00,,,0.00,Wunderground v.1.15,2013-10-31 03:56:00,